Branson, MO

9:45 AM CDT on March 24, 2017 (GMT -0500)
Branson

Weather History for KBBG - December, 2012

Change the Weather History Date:

Sunday, December 9, 2012

  Actual Average (KHRO) Record (KHRO)
Temperature  
Mean Temperature 42 °F -  
Max Temperature 53 °F 48 °F 75 °F (1965)
Min Temperature 32 °F 30 °F -2 °F (1917)
Degree Days  
Heating Degree Days 22    
Moisture  
Dew Point 44 °F    
Average Humidity 92    
Maximum Humidity 100    
Minimum Humidity 70    
Precipitation  
Precipitation 0.00 in - - ()
Sea Level Pressure  
Sea Level Pressure 29.86 in    
Wind  
Wind Speed 5 mph (NW)    
Max Wind Speed 18 mph    
Max Gust Speed 23 mph    
Visibility 5 miles    
Events Fog , Rain , Thunderstorm    
Averages and records for this station are not official NWS values.
T = Trace of Precipitation, MM = Missing Value Source: NWS Daily Summary

Daily Weather History Graph

Daily Weather History Graph

Search for Another Location

Airport or City:

Trip Planner

Search our weather history database for the weather conditions in past years. The results will help you decide how hot, cold, wet, or windy it might be!

Date:

Astronomy

Dec. 09, 2012 Rise Set
Actual Time 7:13 AM CST 4:57 PM CST
Civil Twilight 6:44 AM CST 5:25 PM CST
Nautical Twilight 6:12 AM CST 5:58 PM CST
Astronomical Twilight 5:41 AM CST 6:29 PM CST
Moon 2:52 AM CST (12/9) 2:00 PM CST (12/9)
Length of Visible Light 10h 41m
Length of Day
9h 43m
Waning Crescent, 18% of the Moon is Illuminated
Dec 9
Waning Crescent
Dec 13
New
Dec 19
First Quarter
Dec 28
Full
Jan 4
Last Quarter

Hourly Weather History & Observations

Time (CST) Temp. Windchill Dew Point Humidity Pressure Visibility Wind Dir Wind Speed Gust Speed Precip Events Conditions
12:15 AM 50.0 °F - 50.0 °F 100% 29.82 in 5.0 mi ESE 4.6 mph - N/A   Mostly Cloudy
12:35 AM 51.8 °F - 50.0 °F 94% 29.81 in 5.0 mi Calm Calm - N/A   Partly Cloudy
1:15 AM 50.0 °F - 50.0 °F 100% 29.80 in 3.0 mi Calm Calm - N/A   Scattered Clouds
1:35 AM 50.0 °F - 50.0 °F 100% 29.81 in 2.5 mi Calm Calm - N/A   Mostly Cloudy
1:55 AM 50.0 °F - 50.0 °F 100% 29.81 in 2.5 mi Calm Calm - N/A   Overcast
2:15 AM 48.2 °F - 48.2 °F 100% 29.81 in 2.0 mi Calm Calm - N/A   Overcast
2:35 AM 50.0 °F - 50.0 °F 100% 29.81 in 2.5 mi Calm Calm - N/A   Overcast
2:55 AM 50.0 °F - 50.0 °F 100% 29.81 in 1.0 mi Calm Calm - N/A   Overcast
3:15 AM 51.8 °F - 51.8 °F 100% 29.80 in 0.2 mi SE 3.5 mph - N/A Fog Fog
3:35 AM 51.8 °F - 51.8 °F 100% 29.80 in 0.2 mi Calm Calm - N/A Fog Fog
3:55 AM 51.8 °F - 51.8 °F 100% 29.80 in 0.2 mi Calm Calm - N/A Fog Fog
4:15 AM 51.8 °F - 51.8 °F 100% 29.80 in 0.2 mi SE 4.6 mph - N/A Fog Fog
4:35 AM 53.6 °F - 53.6 °F 100% 29.80 in 0.2 mi Calm Calm - N/A Fog Fog
4:55 AM 53.6 °F - 53.6 °F 100% 29.79 in 0.2 mi Calm Calm - N/A Fog Fog
5:15 AM 53.6 °F - 53.6 °F 100% 29.79 in 0.2 mi Calm Calm - N/A Fog Fog
5:35 AM 53.6 °F - 53.6 °F 100% 29.79 in 0.2 mi Calm Calm - N/A Fog Fog
6:50 AM 53.6 °F - 53.6 °F 100% 29.80 in 1.2 mi SE 5.8 mph - N/A Rain , Thunderstorm Light Thunderstorms and Rain
7:45 AM 53.6 °F - 53.6 °F 100% 29.77 in 2.0 mi East 6.9 mph - N/A Rain Light Rain
8:45 AM 53.6 °F - 53.6 °F 100% 29.79 in 0.1 mi Calm Calm - N/A Fog Fog
9:45 AM 53.6 °F - 53.6 °F 100% 29.80 in 0.1 mi Calm Calm - N/A Fog Fog
10:47 AM 53.6 °F - 53.6 °F 100% 29.82 in 0.1 mi NNW 6.9 mph - N/A Fog Fog
11:50 AM 53.6 °F - 53.6 °F 100% 29.81 in 1.5 mi NNW 11.5 mph - N/A   Overcast
12:45 PM 48.2 °F - 48.2 °F 100% 29.80 in 1.5 mi NW 11.5 mph 16.1 mph N/A   Overcast
1:45 PM 48.2 °F - 48.2 °F 100% 29.81 in 2.5 mi NW 9.2 mph - N/A   Overcast
2:25 PM 46.4 °F 40.7 °F 46.4 °F 100% 29.83 in 5.0 mi NW 12.7 mph 16.1 mph N/A   Overcast
3:52 PM 44.6 °F 38.4 °F 44.6 °F 100% 29.86 in 5.0 mi NW 12.7 mph 18.4 mph N/A   Overcast
4:54 PM 44.6 °F 40.2 °F 42.8 °F 93% 29.86 in 7.0 mi NW 8.1 mph - N/A   Overcast
5:55 PM 44.6 °F 38.1 °F 39.2 °F 81% 29.89 in 10.0 mi NW 13.8 mph 17.3 mph N/A   Overcast
6:45 PM 44.6 °F 38.8 °F 39.2 °F 81% 29.91 in 10.0 mi NW 11.5 mph 17.3 mph N/A   Overcast
7:55 PM 42.8 °F 35.4 °F 37.4 °F 81% 29.92 in 10.0 mi NW 15.0 mph 23.0 mph N/A   Overcast
8:35 PM 41.0 °F 32.2 °F 35.6 °F 81% 29.93 in 7.0 mi NNW 18.4 mph 21.9 mph N/A   Overcast
8:45 PM 41.0 °F 33.1 °F 35.6 °F 81% 29.94 in 10.0 mi NW 15.0 mph 21.9 mph N/A   Overcast
8:55 PM 41.0 °F 33.5 °F 33.8 °F 76% 29.94 in 10.0 mi NNW 13.8 mph 19.6 mph N/A   Mostly Cloudy
9:15 PM 41.0 °F 34.3 °F 33.8 °F 76% 29.94 in 10.0 mi NNW 11.5 mph 18.4 mph N/A   Overcast
9:35 PM 39.2 °F 32.0 °F 32.0 °F 75% 29.95 in 10.0 mi NNW 11.5 mph - N/A   Overcast
9:55 PM 39.2 °F 32.5 °F 32.0 °F 75% 29.95 in 10.0 mi NNW 10.4 mph - N/A   Mostly Cloudy
10:15 PM 37.4 °F 29.3 °F 32.0 °F 81% 29.96 in 10.0 mi WNW 12.7 mph 16.1 mph N/A   Mostly Cloudy
10:35 PM 35.6 °F 27.1 °F 28.4 °F 75% 29.97 in 10.0 mi NW 12.7 mph 17.3 mph N/A   Overcast
10:55 PM 33.8 °F 23.9 °F 24.8 °F 70% 29.98 in 10.0 mi NW 15.0 mph 19.6 mph N/A   Mostly Cloudy
11:15 PM 32.0 °F 22.5 °F 24.8 °F 75% 29.98 in 10.0 mi NW 12.7 mph 21.9 mph N/A   Scattered Clouds
11:35 PM 32.0 °F 23.0 °F 24.8 °F 75% 29.98 in 10.0 mi NW 11.5 mph 16.1 mph N/A   Clear
11:55 PM 32.0 °F 24.2 °F 24.8 °F 75% 29.98 in 10.0 mi NW 9.2 mph - N/A   Clear